Date String (YYYY-MM-DD hh:mm:ss) UTC,Instrument flags,Ambient pressure (hPa),Sample flow (lpm),Bypass flow (lpm),Sample temperature (°C),Ambient temperature (°C),ASC tube jacket temperature (°C),LED temperature (°C),Box temperature (°C),Sample RH (%),Span deviation,Mass concentration (μg/m³),Mass concentration (μg/m³),Mass concentration (μg/m³)
DateTimeUTC,F1_M11,P_M11,Q1_M11,Q2_M11,T1_M11,T2_M11,T3_M11,T4_M11,T5_M11,U1_M11,ZSPAN_M11,X0_M11,X2_M11,X1_M11
2022-04-06 11:00:00,,0825.3,5.00,0.00,22.1,21.5,00.0,31.1,23.6,05.3,0000.0,0006.82,0001.27,0000.58
2022-04-06 11:01:00,,0825.2,5.00,0.00,22.0,21.3,00.0,31.1,23.6,05.3,0000.0,0007.02,0001.29,0000.57
2022-04-06 11:02:00,,0825.2,5.01,0.00,22.0,21.2,00.0,31.1,23.6,05.2,0000.0,0006.96,0001.31,0000.58
2022-04-06 11:03:00,,0825.2,5.00,0.00,22.0,21.1,00.0,31.1,23.5,05.1,0000.0,0005.82,0001.31,0000.58
2022-04-06 11:04:00,,0825.3,5.00,0.00,21.9,21.0,00.0,31.1,23.5,05.1,0000.0,0005.92,0001.35,0000.60
2022-04-06 11:05:00,,0825.3,5.00,0.00,21.9,20.9,00.0,31.0,23.4,05.2,0000.0,0006.32,0001.34,0000.60
2022-04-06 11:06:00,,0825.2,5.00,0.00,21.8,20.8,00.0,31.0,23.4,05.2,0000.0,0005.69,0001.33,0000.61
2022-04-06 11:07:00,,0825.3,4.99,0.00,21.9,21.4,00.0,31.0,23.5,05.2,0000.0,0005.76,0001.32,0000.61
2022-04-06 11:08:00,,0825.3,5.01,0.00,22.0,22.4,00.0,31.1,23.9,05.1,0000.0,0007.23,0001.32,0000.62
2022-04-06 11:09:00,,0825.3,5.02,0.00,22.2,23.3,00.0,31.1,24.2,05.0,0000.0,0007.39,0001.36,0000.61
2022-04-06 11:10:00,,0825.3,4.98,0.00,22.3,23.5,00.0,31.2,24.3,05.0,0000.0,0007.36,0001.37,0000.63
2022-04-06 11:11:00,,0825.3,5.01,0.00,22.3,23.0,00.0,31.2,24.2,05.0,0000.0,0007.41,0001.42,0000.64
2022-04-06 11:12:00,,0825.3,5.00,0.00,22.3,22.6,00.0,31.2,24.1,04.9,0000.0,0007.42,0001.45,0000.63
2022-04-06 11:13:00,,0825.3,4.99,0.00,22.2,22.3,00.0,31.2,23.9,04.9,0000.0,0007.05,0001.42,0000.64
2022-04-06 11:14:00,,0825.2,5.02,0.00,22.2,22.0,00.0,31.2,23.8,05.0,0000.0,0007.07,0001.42,0000.64
2022-04-06 11:15:00,,0825.1,4.98,0.00,22.1,21.7,00.0,31.2,23.7,05.0,0000.0,0007.72,0001.39,0000.64
2022-04-06 11:16:00,,0825.2,5.00,0.00,22.1,21.5,00.0,31.2,23.6,05.0,0000.0,0007.63,0001.38,0000.63
2022-04-06 11:17:00,,0825.2,5.00,0.00,22.0,21.3,00.0,31.1,23.6,05.1,0000.0,0007.07,0001.41,0000.63
2022-04-06 11:18:00,,0825.3,5.00,0.00,21.9,21.1,00.0,31.1,23.5,05.1,0000.0,0007.11,0001.45,0000.64
2022-04-06 11:19:00,,0825.3,5.00,0.00,21.9,21.0,00.0,31.1,23.4,05.1,0000.0,0006.05,0001.45,0000.64
2022-04-06 11:20:00,,0825.1,5.00,0.00,21.8,20.9,00.0,31.1,23.4,05.1,0000.0,0005.91,0001.43,0000.64
2022-04-06 11:21:00,,0825.3,5.02,0.00,21.8,20.7,00.0,31.0,23.3,05.1,0000.0,0005.78,0001.37,0000.65
2022-04-06 11:22:00,,0825.3,5.00,0.00,21.7,20.6,00.0,31.0,23.2,05.1,0000.0,0005.83,0001.34,0000.64
2022-04-06 11:23:00,,0825.3,5.00,0.00,21.7,20.8,00.0,31.0,23.2,05.2,0000.0,0005.65,0001.28,0000.65
2022-04-06 11:24:00,,0825.2,4.99,0.00,21.8,21.7,00.0,31.0,23.5,05.2,0000.0,0005.45,0001.27,0000.66
2022-04-06 11:25:00,,0825.2,5.01,0.00,21.9,22.6,00.0,31.0,23.8,05.1,0000.0,0005.47,0001.31,0000.67
2022-04-06 11:26:00,,0825.2,4.99,0.00,22.1,23.3,00.0,31.1,24.1,05.1,0000.0,0004.48,0001.33,0000.68
2022-04-06 11:27:00,,0825.2,5.01,0.00,22.1,23.0,00.0,31.1,24.0,05.1,0000.0,0004.70,0001.37,0000.69
2022-04-06 11:28:00,,0825.2,4.99,0.00,22.1,22.5,00.0,31.1,23.8,05.1,0000.0,0005.19,0001.38,0000.70
2022-04-06 11:29:00,,0825.3,5.02,0.00,22.0,22.0,00.0,31.1,23.6,05.1,0000.0,0004.90,0001.38,0000.70
2022-04-06 11:30:00,,0825.3,4.99,0.00,21.9,21.7,00.0,31.0,23.5,05.2,0000.0,0004.07,0001.41,0000.72
2022-04-06 11:31:00,,0825.3,5.01,0.00,21.9,21.4,00.0,31.0,23.4,05.2,0000.0,0003.96,0001.38,0000.72
2022-04-06 11:32:00,,0825.3,5.01,0.00,21.8,21.2,00.0,31.0,23.3,05.2,0000.0,0004.19,0001.39,0000.72
2022-04-06 11:33:00,,0825.4,5.00,0.00,21.7,21.0,00.0,31.0,23.2,05.1,0000.0,0004.60,0001.38,0000.73
2022-04-06 11:34:00,,0825.4,5.00,0.00,21.7,20.8,00.0,30.9,23.1,05.2,0000.0,0005.62,0001.37,0000.73
2022-04-06 11:35:00,,0825.3,4.99,0.00,21.6,20.7,00.0,30.9,23.0,05.2,0000.0,0005.74,0001.40,0000.73
2022-04-06 11:36:00,,0825.3,5.00,0.00,21.5,20.6,00.0,30.9,23.0,05.2,0000.0,0005.80,0001.40,0000.74
2022-04-06 11:37:00,,0825.3,5.00,0.00,21.5,20.8,00.0,30.8,23.1,05.1,0000.0,0005.71,0001.40,0000.72
2022-04-06 11:38:00,,0825.3,4.99,0.00,21.6,21.7,00.0,30.9,23.4,05.1,0000.0,0005.15,0001.39,0000.73
2022-04-06 11:39:00,,0825.3,5.01,0.00,21.8,22.7,00.0,30.9,23.7,05.1,0000.0,0006.07,0001.43,0000.73
2022-04-06 11:40:00,,0825.3,5.00,0.00,22.0,23.3,00.0,30.9,24.0,05.1,0000.0,0006.46,0001.43,0000.73
2022-04-06 11:41:00,,0825.4,5.00,0.00,22.0,22.9,00.0,30.9,23.9,05.0,0000.0,0006.45,0001.42,0000.72
2022-04-06 11:42:00,,0825.3,5.01,0.00,22.0,22.4,00.0,30.9,23.7,05.0,0000.0,0006.57,0001.46,0000.73
2022-04-06 11:43:00,,0825.3,4.99,0.00,21.9,22.0,00.0,30.9,23.5,05.0,0000.0,0006.34,0001.44,0000.72
2022-04-06 11:44:00,,0825.3,5.01,0.00,21.8,21.6,00.0,30.9,23.4,05.0,0000.0,0005.89,0001.46,0000.72
2022-04-06 11:45:00,,0825.2,4.99,0.00,21.8,21.3,00.0,30.9,23.3,05.0,0000.0,0005.08,0001.51,0000.73
2022-04-06 11:46:00,,0825.2,5.01,0.00,21.7,21.0,00.0,30.9,23.2,05.0,0000.0,0005.75,0001.51,0000.73
2022-04-06 11:47:00,,0825.3,4.99,0.00,21.6,20.8,00.0,30.8,23.1,05.0,0000.0,0007.28,0001.52,0000.72
2022-04-06 11:48:00,,0825.4,4.99,0.00,21.5,20.6,00.0,30.8,22.9,05.2,0000.0,0007.75,0001.52,0000.74
2022-04-06 11:49:00,,0825.3,5.01,0.00,21.4,20.5,00.0,30.8,22.8,05.2,0000.0,0007.76,0001.53,0000.75
2022-04-06 11:50:00,,0825.3,5.00,0.00,21.4,20.9,00.0,30.8,22.9,05.2,0000.0,0006.70,0001.48,0000.74
2022-04-06 11:51:00,,0825.3,5.01,0.00,21.6,21.9,00.0,30.8,23.3,05.2,0000.0,0006.36,0001.45,0000.74
2022-04-06 11:52:00,,0825.4,4.99,0.00,21.8,22.8,00.0,30.8,23.7,05.1,0000.0,0007.00,0001.47,0000.74
2022-04-06 11:53:00,,0825.4,5.00,0.00,21.9,23.2,00.0,30.8,23.9,05.0,0000.0,0006.89,0001.44,0000.74
2022-04-06 11:54:00,,0825.4,5.00,0.00,21.9,22.8,00.0,30.9,23.8,05.1,0000.0,0006.93,0001.45,0000.75
2022-04-06 11:55:00,,0825.3,5.00,0.00,21.9,22.2,00.0,30.9,23.6,05.0,0000.0,0007.57,0001.48,0000.74
2022-04-06 11:56:00,,0825.4,5.01,0.00,21.8,21.8,00.0,30.8,23.4,04.9,0000.0,0008.05,0001.49,0000.73
2022-04-06 11:57:00,,0825.4,4.99,0.00,21.8,21.5,00.0,30.8,23.3,05.0,0000.0,0007.65,0001.45,0000.73
2022-04-06 11:58:00,,0825.4,5.00,0.00,21.7,21.2,00.0,30.8,23.2,05.0,0000.0,0006.36,0001.43,0000.73
2022-04-06 11:59:00,,0825.4,5.01,0.00,21.6,20.9,00.0,30.8,23.1,05.0,0000.0,0005.50,0001.40,0000.72
